Hobart Regional Airport Hobart US
ICAO: KHBR
IATA: HBR
Category: Medium
Scheduled Services: No

Elevation: 1563 ft
TransAlt. 18000 ft.

Airport Communications:
ALTUS APP:125.1
ASOS:133.325
ALTUS DEP:125.1
MC ALESTER RDO:122.2
CTAF/UNICOM:122.8

KHBR Zoom In..

If you have problems with the map follow the link
https://www.worldairports.se/pages/airport.php?
ICAO=KHBR

Runways:

(A) RW 03 length 5297 ft width 150 ft
---- / hdg 38

(B) RW 12 length 5295 ft width 150 ft
---- / hdg 128

(C) RW 17 length 5507 ft width 100 ft
---- / hdg 173

(D) RW 21 length 5297 ft width 150 ft
---- / hdg 218

(E) RW 30 length 5295 ft width 150 ft
---- / hdg 308

(F) RW 35 length 5507 ft width 100 ft
---- / hdg 353

Location; KHBR
Day. 14 / Time. 14.53 Zulu
* Altimeter: 29.91
* Temperature: 06° c. 42.8°f.
* Wind from: 060° Speed 07 kn.
Dewpoint: 01° c.
Visibility: 10 Statute Miles.
Clouds: Scattered 11000 ft.

KHBR 141453Z AUTO 06007KT 10SM SCT110 06/01 A2991 RMK AO2 SLP130 T00610006 53001


Wind From 060°
Speed 07 kn.

 
 
jpsmedia worldairports.se 2019   terms of use